Time,TemperatureF,DewpointF,PressureIn,WindDirection,WindDirectionDegrees,WindSpeedMPH,WindSpeedGustMPH,Humidity,HourlyPrecipIn,Conditions,Clouds,dailyrainin,SoftwareType,DateUTC
2013-04-08 00:00:00,46.3,38.5,29.97,SW,235,7.0,7.0,74,0.00,,,0.00,Wunderground v.1.15,2013-04-08 04:00:00,
2013-04-08 00:01:00,46.3,38.5,29.97,SW,227,9.0,9.0,74,0.00,,,0.00,Wunderground v.1.15,2013-04-08 04:01:00,
2013-04-08 00:07:00,46.2,38.4,29.98,WSW,250,7.0,9.0,74,0.00,,,0.00,Wunderground v.1.15,2013-04-08 04:07:00,
2013-04-08 00:08:00,46.2,38.4,29.97,SSW,211,4.0,9.0,74,0.00,,,0.00,Wunderground v.1.15,2013-04-08 04:08:00,
2013-04-08 00:14:00,46.3,38.5,29.97,SW,227,7.0,9.0,74,0.00,,,0.00,Wunderground v.1.15,2013-04-08 04:14:00,
2013-04-08 00:19:00,46.3,38.5,29.97,WSW,245,6.0,9.0,74,0.00,,,0.00,Wunderground v.1.15,2013-04-08 04:19:00,
2013-04-08 00:24:00,46.3,38.8,29.97,SW,234,5.0,11.0,75,0.00,,,0.00,Wunderground v.1.15,2013-04-08 04:24:00,
2013-04-08 00:30:00,46.3,38.8,29.97,West,273,3.0,6.0,75,0.00,,,0.00,Wunderground v.1.15,2013-04-08 04:30:00,
2013-04-08 00:37:00,46.3,38.8,29.97,SW,223,2.0,6.0,75,0.00,,,0.00,Wunderground v.1.15,2013-04-08 04:37:00,
2013-04-08 00:43:00,46.2,38.7,29.97,SSW,196,6.0,6.0,75,0.00,,,0.00,Wunderground v.1.15,2013-04-08 04:43:00,
2013-04-08 00:48:00,46.2,38.7,29.97,SSW,194,3.0,7.0,75,0.00,,,0.00,Wunderground v.1.15,2013-04-08 04:48:00,
2013-04-08 00:53:00,46.1,38.6,29.97,SSW,203,6.0,8.0,75,0.00,,,0.00,Wunderground v.1.15,2013-04-08 04:53:00,
2013-04-08 00:58:00,46.1,39.0,29.96,SSW,201,4.0,8.0,76,0.00,,,0.00,Wunderground v.1.15,2013-04-08 04:58:00,
2013-04-08 01:05:00,46.1,39.0,29.96,SSW,199,4.0,7.0,76,0.00,,,0.00,Wunderground v.1.15,2013-04-08 05:05:00,
2013-04-08 01:11:00,46.1,39.0,29.96,SW,234,0.0,4.0,76,0.00,,,0.00,Wunderground v.1.15,2013-04-08 05:11:00,
2013-04-08 01:17:00,46.0,38.9,29.96,WSW,237,3.0,6.0,76,0.00,,,0.00,Wunderground v.1.15,2013-04-08 05:17:00,
2013-04-08 01:22:00,46.0,39.2,29.96,West,263,0.0,4.0,77,0.00,,,0.00,Wunderground v.1.15,2013-04-08 05:22:00,
2013-04-08 01:28:00,46.1,39.3,29.96,SSW,203,1.0,8.0,77,0.00,,,0.00,Wunderground v.1.15,2013-04-08 05:28:00,
2013-04-08 01:33:00,46.1,39.3,29.95,SSW,206,0.0,4.0,77,0.00,,,0.00,Wunderground v.1.15,2013-04-08 05:33:00,
2013-04-08 01:38:00,46.0,39.2,29.95,WSW,257,4.0,5.0,77,0.00,,,0.00,Wunderground v.1.15,2013-04-08 05:38:00,
2013-04-08 01:43:00,46.0,39.2,29.95,SW,229,2.0,7.0,77,0.00,,,0.00,Wunderground v.1.15,2013-04-08 05:43:00,
2013-04-08 01:48:00,46.0,39.2,29.95,SSW,208,4.0,7.0,77,0.00,,,0.00,Wunderground v.1.15,2013-04-08 05:48:00,
2013-04-08 01:54:00,46.0,39.2,29.95,SSW,204,1.0,5.0,77,0.00,,,0.00,Wunderground v.1.15,2013-04-08 05:54:00,
2013-04-08 02:00:00,46.0,39.5,29.95,WSW,237,5.0,5.0,78,0.00,,,0.00,Wunderground v.1.15,2013-04-08 06:00:00,
2013-04-08 02:05:00,46.0,39.5,29.94,WSW,240,4.0,5.0,78,0.00,,,0.00,Wunderground v.1.15,2013-04-08 06:05:00,
2013-04-08 02:10:00,46.0,39.5,29.94,SW,219,4.0,4.0,78,0.00,,,0.00,Wunderground v.1.15,2013-04-08 06:10:00,
2013-04-08 02:15:00,45.9,39.4,29.95,SW,229,6.0,7.0,78,0.00,,,0.00,Wunderground v.1.15,2013-04-08 06:15:00,
2013-04-08 02:20:00,45.9,39.4,29.94,SSW,202,3.0,3.0,78,0.00,,,0.00,Wunderground v.1.15,2013-04-08 06:20:00,
2013-04-08 02:25:00,45.9,39.4,29.94,SW,222,3.0,7.0,78,0.00,,,0.00,Wunderground v.1.15,2013-04-08 06:25:00,
2013-04-08 02:30:00,45.9,39.4,29.94,SW,219,4.0,4.0,78,0.00,,,0.00,Wunderground v.1.15,2013-04-08 06:30:00,
2013-04-08 02:35:00,45.9,39.4,29.94,SW,220,2.0,6.0,78,0.00,,,0.00,Wunderground v.1.15,2013-04-08 06:35:00,
2013-04-08 02:40:00,45.9,39.4,29.94,SW,221,2.0,2.0,78,0.00,,,0.00,Wunderground v.1.15,2013-04-08 06:40:00,
2013-04-08 02:45:00,45.8,39.3,29.93,WNW,295,2.0,4.0,78,0.00,,,0.00,Wunderground v.1.15,2013-04-08 06:45:00,
2013-04-08 02:50:00,45.6,39.1,29.94,WSW,255,1.0,2.0,78,0.00,,,0.00,Wunderground v.1.15,2013-04-08 06:50:00,
2013-04-08 02:56:00,45.5,39.0,29.93,WSW,238,3.0,4.0,78,0.00,,,0.00,Wunderground v.1.15,2013-04-08 06:56:00,
2013-04-08 03:01:00,45.4,38.9,29.93,SW,219,2.0,4.0,78,0.00,,,0.00,Wunderground v.1.15,2013-04-08 07:01:00,
2013-04-08 03:06:00,45.3,38.8,29.93,SSW,208,3.0,6.0,78,0.00,,,0.00,Wunderground v.1.15,2013-04-08 07:06:00,
2013-04-08 03:11:00,45.2,39.1,29.93,SSW,203,2.0,6.0,79,0.00,,,0.00,Wunderground v.1.15,2013-04-08 07:11:00,
2013-04-08 03:16:00,45.2,39.1,29.92,SSW,210,5.0,6.0,79,0.00,,,0.00,Wunderground v.1.15,2013-04-08 07:16:00,
2013-04-08 03:21:00,45.2,39.4,29.92,SW,220,4.0,6.0,80,0.00,,,0.00,Wunderground v.1.15,2013-04-08 07:21:00,
2013-04-08 03:26:00,45.3,39.5,29.92,WSW,238,0.0,6.0,80,0.00,,,0.00,Wunderground v.1.15,2013-04-08 07:26:00,
2013-04-08 03:31:00,45.3,40.7,29.92,South,184,2.0,4.0,84,0.00,,,0.00,Wunderground v.1.15,2013-04-08 07:31:00,
2013-04-08 03:36:00,45.3,39.5,29.92,WSW,238,2.0,5.0,80,0.00,,,0.00,Wunderground v.1.15,2013-04-08 07:36:00,
2013-04-08 03:42:00,45.4,39.6,29.92,SSW,206,5.0,7.0,80,0.00,,,0.00,Wunderground v.1.15,2013-04-08 07:42:00,
2013-04-08 03:47:00,45.5,39.7,29.92,SSW,195,0.0,7.0,80,0.00,,,0.00,Wunderground v.1.15,2013-04-08 07:47:00,
2013-04-08 03:52:00,45.4,39.6,29.92,SW,226,3.0,4.0,80,0.00,,,0.00,Wunderground v.1.15,2013-04-08 07:52:00,
2013-04-08 03:57:00,45.3,39.5,29.92,West,267,0.0,4.0,80,0.00,,,0.00,Wunderground v.1.15,2013-04-08 07:57:00,
2013-04-08 04:02:00,45.2,39.4,29.92,SSW,211,0.0,4.0,80,0.00,,,0.00,Wunderground v.1.15,2013-04-08 08:02:00,
2013-04-08 04:07:00,45.1,39.3,29.92,West,263,0.0,4.0,80,0.00,,,0.00,Wunderground v.1.15,2013-04-08 08:07:00,
2013-04-08 04:12:00,45.1,39.3,29.92,WSW,241,1.0,3.0,80,0.00,,,0.00,Wunderground v.1.15,2013-04-08 08:12:00,
2013-04-08 04:17:00,45.0,39.2,29.92,SW,223,2.0,4.0,80,0.00,,,0.00,Wunderground v.1.15,2013-04-08 08:17:00,
2013-04-08 04:22:00,45.0,39.2,29.92,WSW,246,3.0,3.0,80,0.00,,,0.00,Wunderground v.1.15,2013-04-08 08:22:00,
2013-04-08 04:27:00,45.0,39.5,29.92,WSW,252,1.0,4.0,81,0.00,,,0.00,Wunderground v.1.15,2013-04-08 08:27:00,
2013-04-08 04:32:00,44.9,39.4,29.92,WSW,257,1.0,3.0,81,0.00,,,0.00,Wunderground v.1.15,2013-04-08 08:32:00,
2013-04-08 04:37:00,44.9,39.4,29.92,SSW,205,4.0,6.0,81,0.00,,,0.00,Wunderground v.1.15,2013-04-08 08:37:00,
2013-04-08 04:42:00,44.9,39.4,29.92,SW,234,1.0,2.0,81,0.00,,,0.00,Wunderground v.1.15,2013-04-08 08:42:00,
2013-04-08 04:47:00,44.8,39.3,29.92,West,279,3.0,5.0,81,0.00,,,0.00,Wunderground v.1.15,2013-04-08 08:47:00,
2013-04-08 04:52:00,44.7,39.2,29.92,West,279,4.0,4.0,81,0.00,,,0.00,Wunderground v.1.15,2013-04-08 08:52:00,
2013-04-08 04:57:00,44.6,39.1,29.93,WNW,284,3.0,5.0,81,0.00,,,0.00,Wunderground v.1.15,2013-04-08 08:57:00,
2013-04-08 05:02:00,44.4,38.9,29.93,WSW,252,2.0,5.0,81,0.00,,,0.00,Wunderground v.1.15,2013-04-08 09:02:00,
2013-04-08 05:07:00,44.3,38.8,29.93,WSW,251,2.0,5.0,81,0.00,,,0.00,Wunderground v.1.15,2013-04-08 09:07:00,
2013-04-08 05:12:00,44.2,38.7,29.93,WSW,249,0.0,3.0,81,0.00,,,0.00,Wunderground v.1.15,2013-04-08 09:12:00,
2013-04-08 05:18:00,44.2,38.7,29.93,WSW,250,0.0,3.0,81,0.00,,,0.00,Wunderground v.1.15,2013-04-08 09:18:00,
2013-04-08 05:23:00,44.0,38.5,29.93,WSW,250,1.0,3.0,81,0.00,,,0.00,Wunderground v.1.15,2013-04-08 09:23:00,
2013-04-08 05:28:00,43.9,38.4,29.93,West,269,4.0,5.0,81,0.00,,,0.00,Wunderground v.1.15,2013-04-08 09:28:00,
2013-04-08 05:33:00,43.9,38.4,29.93,SW,232,0.0,3.0,81,0.00,,,0.00,Wunderground v.1.15,2013-04-08 09:33:00,
2013-04-08 05:38:00,43.8,38.3,29.93,West,271,3.0,4.0,81,0.00,,,0.00,Wunderground v.1.15,2013-04-08 09:38:00,
2013-04-08 05:43:00,43.7,38.3,29.94,WNW,292,1.0,3.0,81,0.00,,,0.00,Wunderground v.1.15,2013-04-08 09:43:00,
2013-04-08 05:48:00,43.6,38.5,29.94,WNW,292,4.0,4.0,82,0.00,,,0.00,Wunderground v.1.15,2013-04-08 09:48:00,
2013-04-08 05:53:00,43.5,38.4,29.94,West,260,5.0,5.0,82,0.00,,,0.00,Wunderground v.1.15,2013-04-08 09:53:00,
2013-04-08 05:58:00,43.4,38.3,29.94,WSW,244,3.0,6.0,82,0.00,,,0.00,Wunderground v.1.15,2013-04-08 09:58:00,
2013-04-08 06:03:00,43.3,38.2,29.94,WSW,242,0.0,3.0,82,0.00,,,0.00,Wunderground v.1.15,2013-04-08 10:03:00,
2013-04-08 06:08:00,43.3,38.2,29.94,WSW,242,0.0,3.0,82,0.00,,,0.00,Wunderground v.1.15,2013-04-08 10:08:00,
2013-04-08 06:13:00,43.2,38.1,29.94,WSW,242,2.0,3.0,82,0.00,,,0.00,Wunderground v.1.15,2013-04-08 10:13:00,
2013-04-08 06:18:00,43.0,37.9,29.95,SW,219,0.0,3.0,82,0.00,,,0.00,Wunderground v.1.15,2013-04-08 10:18:00,
2013-04-08 06:23:00,42.9,37.8,29.95,SW,226,2.0,2.0,82,0.00,,,0.00,Wunderground v.1.15,2013-04-08 10:23:00,
2013-04-08 06:28:00,42.9,37.8,29.95,WSW,252,2.0,4.0,82,0.00,,,0.00,Wunderground v.1.15,2013-04-08 10:28:00,
2013-04-08 06:33:00,42.8,37.7,29.95,WSW,252,1.0,2.0,82,0.00,,,0.00,Wunderground v.1.15,2013-04-08 10:33:00,
2013-04-08 06:38:00,42.8,37.7,29.95,WSW,252,0.0,2.0,82,0.00,,,0.00,Wunderground v.1.15,2013-04-08 10:38:00,
2013-04-08 06:43:00,42.8,37.7,29.95,WSW,252,0.0,3.0,82,0.00,,,0.00,Wunderground v.1.15,2013-04-08 10:43:00,
2013-04-08 06:48:00,42.8,38.0,29.95,WSW,252,0.0,3.0,83,0.00,,,0.00,Wunderground v.1.15,2013-04-08 10:48:00,
2013-04-08 06:53:00,42.9,38.1,29.96,WSW,253,3.0,4.0,83,0.00,,,0.00,Wunderground v.1.15,2013-04-08 10:53:00,
2013-04-08 06:58:00,43.3,38.8,29.96,WSW,252,1.0,5.0,84,0.00,,,0.00,Wunderground v.1.15,2013-04-08 10:58:00,
2013-04-08 07:03:00,43.6,39.1,29.96,WSW,245,4.0,4.0,84,0.00,,,0.00,Wunderground v.1.15,2013-04-08 11:03:00,
2013-04-08 07:08:00,43.8,39.3,29.96,WSW,246,1.0,4.0,84,0.00,,,0.00,Wunderground v.1.15,2013-04-08 11:08:00,
2013-04-08 07:13:00,44.1,39.6,29.96,West,267,2.0,6.0,84,0.00,,,0.00,Wunderground v.1.15,2013-04-08 11:13:00,
2013-04-08 07:18:00,44.5,40.0,29.96,WSW,245,2.0,6.0,84,0.00,,,0.00,Wunderground v.1.15,2013-04-08 11:18:00,
2013-04-08 07:23:00,45.0,40.8,29.97,West,274,3.0,5.0,85,0.00,,,0.00,Wunderground v.1.15,2013-04-08 11:23:00,
2013-04-08 07:28:00,45.2,40.7,29.97,West,269,2.0,6.0,84,0.00,,,0.00,Wunderground v.1.15,2013-04-08 11:28:00,
2013-04-08 07:33:00,45.5,40.9,29.97,West,264,0.0,4.0,84,0.00,,,0.00,Wunderground v.1.15,2013-04-08 11:33:00,
2013-04-08 07:38:00,45.7,41.1,29.97,WSW,240,3.0,4.0,84,0.00,,,0.00,Wunderground v.1.15,2013-04-08 11:38:00,
2013-04-08 07:43:00,45.9,41.3,29.97,WSW,244,3.0,4.0,84,0.00,,,0.00,Wunderground v.1.15,2013-04-08 11:43:00,
2013-04-08 07:48:00,46.0,41.1,29.97,WSW,244,0.0,4.0,83,0.00,,,0.00,Wunderground v.1.15,2013-04-08 11:48:00,
2013-04-08 07:53:00,46.3,41.4,29.97,WSW,244,1.0,2.0,83,0.00,,,0.00,Wunderground v.1.15,2013-04-08 11:53:00,
2013-04-08 07:58:00,46.5,41.6,29.97,WSW,244,1.0,2.0,83,0.00,,,0.00,Wunderground v.1.15,2013-04-08 11:58:00,
2013-04-08 08:03:00,46.7,41.8,29.97,WSW,257,2.0,3.0,83,0.00,,,0.00,Wunderground v.1.15,2013-04-08 12:03:00,
2013-04-08 08:09:00,46.9,41.7,29.98,West,275,3.0,5.0,82,0.00,,,0.00,Wunderground v.1.15,2013-04-08 12:09:00,
2013-04-08 08:14:00,47.2,42.0,29.98,West,273,3.0,4.0,82,0.00,,,0.00,Wunderground v.1.15,2013-04-08 12:14:00,
2013-04-08 08:19:00,47.5,42.0,29.98,WSW,241,0.0,6.0,81,0.00,,,0.00,Wunderground v.1.15,2013-04-08 12:19:00,
2013-04-08 08:24:00,47.7,42.2,29.98,WSW,250,4.0,5.0,81,0.00,,,0.00,Wunderground v.1.15,2013-04-08 12:24:00,
2013-04-08 08:29:00,47.9,42.0,29.98,WSW,251,4.0,5.0,80,0.00,,,0.00,Wunderground v.1.15,2013-04-08 12:29:00,
2013-04-08 08:34:00,48.1,41.9,29.98,West,268,2.0,6.0,79,0.00,,,0.00,Wunderground v.1.15,2013-04-08 12:34:00,
2013-04-08 08:40:00,48.4,41.9,29.98,West,275,3.0,3.0,78,0.00,,,0.00,Wunderground v.1.15,2013-04-08 12:40:00,
2013-04-08 08:45:00,48.7,41.8,29.98,WSW,257,4.0,7.0,77,0.00,,,0.00,Wunderground v.1.15,2013-04-08 12:45:00,
2013-04-08 08:50:00,48.9,42.0,29.98,WSW,242,4.0,4.0,77,0.00,,,0.00,Wunderground v.1.15,2013-04-08 12:50:00,
2013-04-08 08:55:00,49.2,42.0,29.98,SW,231,4.0,5.0,76,0.00,,,0.00,Wunderground v.1.15,2013-04-08 12:55:00,
2013-04-08 09:00:00,49.5,42.2,29.98,West,271,5.0,5.0,76,0.00,,,0.00,Wunderground v.1.15,2013-04-08 13:00:00,
2013-04-08 09:05:00,49.8,42.2,29.98,WNW,290,3.0,6.0,75,0.00,,,0.00,Wunderground v.1.15,2013-04-08 13:05:00,
2013-04-08 09:10:00,50.1,42.1,29.98,NW,315,1.0,3.0,74,0.00,,,0.00,Wunderground v.1.15,2013-04-08 13:10:00,
2013-04-08 09:15:00,50.4,42.1,29.98,West,271,8.0,8.0,73,0.00,,,0.00,Wunderground v.1.15,2013-04-08 13:15:00,
2013-04-08 09:20:00,50.5,41.1,29.98,NW,323,3.0,4.0,70,0.00,,,0.00,Wunderground v.1.15,2013-04-08 13:20:00,
2013-04-08 09:25:00,50.7,41.3,29.98,WNW,298,5.0,7.0,70,0.00,,,0.00,Wunderground v.1.15,2013-04-08 13:25:00,
2013-04-08 09:31:00,50.7,40.5,29.98,NW,311,6.0,6.0,68,0.00,,,0.00,Wunderground v.1.15,2013-04-08 13:31:00,
2013-04-08 09:36:00,50.9,41.1,29.98,West,261,5.0,9.0,69,0.00,,,0.00,Wunderground v.1.15,2013-04-08 13:36:00,
2013-04-08 09:41:00,51.1,40.1,29.98,West,280,7.0,13.0,66,0.00,,,0.00,Wunderground v.1.15,2013-04-08 13:41:00,
2013-04-08 09:46:00,51.4,40.0,29.98,WNW,296,2.0,13.0,65,0.00,,,0.00,Wunderground v.1.15,2013-04-08 13:46:00,
2013-04-08 09:51:00,51.6,39.8,29.98,NW,316,5.0,9.0,64,0.00,,,0.00,Wunderground v.1.15,2013-04-08 13:51:00,
2013-04-08 09:56:00,51.8,40.4,29.98,West,279,6.0,9.0,65,0.00,,,0.00,Wunderground v.1.15,2013-04-08 13:56:00,
2013-04-08 10:02:00,52.1,39.9,29.99,NW,310,7.0,9.0,63,0.00,,,0.00,Wunderground v.1.15,2013-04-08 14:02:00,
2013-04-08 10:07:00,52.3,40.5,29.99,WNW,293,10.0,12.0,64,0.00,,,0.00,Wunderground v.1.15,2013-04-08 14:07:00,
2013-04-08 10:12:00,52.6,40.4,29.99,West,261,5.0,11.0,63,0.00,,,0.00,Wunderground v.1.15,2013-04-08 14:12:00,
2013-04-08 10:17:00,52.8,40.1,30.00,NW,322,8.0,11.0,62,0.00,,,0.00,Wunderground v.1.15,2013-04-08 14:17:00,
2013-04-08 10:22:00,53.0,40.3,29.99,North,350,6.0,9.0,62,0.00,,,0.00,Wunderground v.1.15,2013-04-08 14:22:00,
2013-04-08 10:27:00,53.8,41.5,30.00,NW,311,5.0,9.0,63,0.00,,,0.00,Wunderground v.1.15,2013-04-08 14:27:00,
2013-04-08 10:32:00,54.4,40.8,30.00,NNW,340,5.0,7.0,60,0.00,,,0.00,Wunderground v.1.15,2013-04-08 14:32:00,
2013-04-08 10:37:00,54.8,41.6,30.00,WNW,283,4.0,10.0,61,0.00,,,0.00,Wunderground v.1.15,2013-04-08 14:37:00,
2013-04-08 10:43:00,55.3,41.2,30.00,WNW,299,2.0,7.0,59,0.00,,,0.00,Wunderground v.1.15,2013-04-08 14:43:00,
2013-04-08 10:48:00,55.3,41.2,30.00,NW,307,2.0,8.0,59,0.00,,,0.00,Wunderground v.1.15,2013-04-08 14:48:00,
2013-04-08 10:53:00,55.5,41.0,30.00,West,280,2.0,8.0,58,0.00,,,0.00,Wunderground v.1.15,2013-04-08 14:53:00,
2013-04-08 10:58:00,55.6,41.0,30.00,West,275,3.0,11.0,58,0.00,,,0.00,Wunderground v.1.15,2013-04-08 14:58:00,
2013-04-08 11:03:00,55.6,40.6,30.00,NNW,331,8.0,10.0,57,0.00,,,0.00,Wunderground v.1.15,2013-04-08 15:03:00,
2013-04-08 11:08:00,55.9,41.3,30.01,NW,304,4.0,10.0,58,0.00,,,0.00,Wunderground v.1.15,2013-04-08 15:08:00,
2013-04-08 11:13:00,56.2,41.6,30.01,NW,319,9.0,9.0,58,0.00,,,0.00,Wunderground v.1.15,2013-04-08 15:13:00,
2013-04-08 11:18:00,56.7,41.2,30.01,NW,322,5.0,9.0,56,0.00,,,0.00,Wunderground v.1.15,2013-04-08 15:18:00,
2013-04-08 11:23:00,57.3,40.3,30.01,NNW,341,12.0,12.0,53,0.00,,,0.00,Wunderground v.1.15,2013-04-08 15:23:00,
2013-04-08 11:28:00,57.5,40.5,30.01,West,277,7.0,12.0,53,0.00,,,0.00,Wunderground v.1.15,2013-04-08 15:28:00,
2013-04-08 11:33:00,57.7,40.7,30.01,NNW,331,10.0,10.0,53,0.00,,,0.00,Wunderground v.1.15,2013-04-08 15:33:00,
2013-04-08 11:38:00,58.1,40.6,30.01,NW,323,5.0,14.0,52,0.00,,,0.00,Wunderground v.1.15,2013-04-08 15:38:00,
2013-04-08 11:43:00,58.2,39.6,30.01,West,279,1.0,8.0,50,0.00,,,0.00,Wunderground v.1.15,2013-04-08 15:43:00,
2013-04-08 11:48:00,58.5,39.9,30.01,NW,325,5.0,9.0,50,0.00,,,0.00,Wunderground v.1.15,2013-04-08 15:48:00,
2013-04-08 11:53:00,59.0,41.4,30.01,NW,325,9.0,9.0,52,0.00,,,0.00,Wunderground v.1.15,2013-04-08 15:53:00,
2013-04-08 11:58:00,59.0,40.4,30.01,North,360,1.0,9.0,50,0.00,,,0.00,Wunderground v.1.15,2013-04-08 15:58:00,
2013-04-08 12:03:00,59.0,40.4,30.01,NNW,327,8.0,10.0,50,0.00,,,0.00,Wunderground v.1.15,2013-04-08 16:03:00,
2013-04-08 12:08:00,59.0,39.9,30.01,WNW,303,2.0,10.0,49,0.00,,,0.00,Wunderground v.1.15,2013-04-08 16:08:00,
2013-04-08 12:13:00,59.3,39.6,30.01,NNE,33,0.0,7.0,48,0.00,,,0.00,Wunderground v.1.15,2013-04-08 16:13:00,
2013-04-08 12:18:00,59.5,39.2,30.01,NNW,346,9.0,14.0,47,0.00,,,0.00,Wunderground v.1.15,2013-04-08 16:18:00,
2013-04-08 12:23:00,59.6,39.9,30.01,North,360,7.0,9.0,48,0.00,,,0.00,Wunderground v.1.15,2013-04-08 16:23:00,
2013-04-08 12:28:00,59.5,39.2,30.01,NW,321,3.0,11.0,47,0.00,,,0.00,Wunderground v.1.15,2013-04-08 16:28:00,
2013-04-08 12:33:00,59.5,39.2,30.01,NNW,346,4.0,12.0,47,0.00,,,0.00,Wunderground v.1.15,2013-04-08 16:33:00,
2013-04-08 12:38:00,59.6,39.3,30.01,West,268,3.0,12.0,47,0.00,,,0.00,Wunderground v.1.15,2013-04-08 16:38:00,
2013-04-08 12:43:00,60.1,40.9,30.01,NW,319,8.0,11.0,49,0.00,,,0.00,Wunderground v.1.15,2013-04-08 16:43:00,
2013-04-08 12:48:00,60.2,39.3,30.01,WNW,290,6.0,11.0,46,0.00,,,0.00,Wunderground v.1.15,2013-04-08 16:48:00,
2013-04-08 12:53:00,60.0,39.7,30.01,NNW,333,6.0,12.0,47,0.00,,,0.00,Wunderground v.1.15,2013-04-08 16:53:00,
2013-04-08 12:58:00,60.3,39.4,30.01,North,351,0.0,12.0,46,0.00,,,0.00,Wunderground v.1.15,2013-04-08 16:58:00,
2013-04-08 13:03:00,60.4,39.5,30.01,NNE,18,6.0,8.0,46,0.00,,,0.00,Wunderground v.1.15,2013-04-08 17:03:00,
2013-04-08 13:08:00,60.4,39.5,30.00,NNW,336,6.0,8.0,46,0.00,,,0.00,Wunderground v.1.15,2013-04-08 17:08:00,
2013-04-08 13:13:00,60.5,39.0,30.01,NNW,337,6.0,10.0,45,0.00,,,0.00,Wunderground v.1.15,2013-04-08 17:13:00,
2013-04-08 13:19:00,60.5,39.6,30.00,North,360,2.0,10.0,46,0.00,,,0.00,Wunderground v.1.15,2013-04-08 17:19:00,
2013-04-08 13:24:00,60.8,39.9,30.01,West,276,1.0,9.0,46,0.00,,,0.00,Wunderground v.1.15,2013-04-08 17:24:00,
2013-04-08 13:29:00,61.4,39.3,30.01,NNW,338,3.0,11.0,44,0.00,,,0.00,Wunderground v.1.15,2013-04-08 17:29:00,
2013-04-08 13:34:00,61.5,38.8,30.01,NNW,329,7.0,11.0,43,0.00,,,0.00,Wunderground v.1.15,2013-04-08 17:34:00,
2013-04-08 13:39:00,61.4,38.1,30.01,NNE,24,6.0,11.0,42,0.00,,,0.00,Wunderground v.1.15,2013-04-08 17:39:00,
2013-04-08 13:44:00,61.3,39.2,30.02,NNW,338,0.0,7.0,44,0.00,,,0.00,Wunderground v.1.15,2013-04-08 17:44:00,
2013-04-08 13:49:00,61.5,38.8,30.02,NW,306,3.0,11.0,43,0.00,,,0.00,Wunderground v.1.15,2013-04-08 17:49:00,
2013-04-08 13:55:00,61.6,38.9,30.01,ENE,77,2.0,6.0,43,0.00,,,0.00,Wunderground v.1.15,2013-04-08 17:55:00,
2013-04-08 14:00:00,61.7,40.1,30.01,West,260,2.0,11.0,45,0.00,,,0.00,Wunderground v.1.15,2013-04-08 18:00:00,
2013-04-08 14:05:00,61.9,37.9,30.00,NE,36,2.0,10.0,41,0.00,,,0.00,Wunderground v.1.15,2013-04-08 18:05:00,
2013-04-08 14:10:00,62.2,39.4,30.01,WNW,288,8.0,8.0,43,0.00,,,0.00,Wunderground v.1.15,2013-04-08 18:10:00,
2013-04-08 14:15:00,62.4,39.0,30.01,WSW,257,7.0,9.0,42,0.00,,,0.00,Wunderground v.1.15,2013-04-08 18:15:00,
2013-04-08 14:20:00,62.7,38.6,30.01,NE,56,2.0,4.0,41,0.00,,,0.00,Wunderground v.1.15,2013-04-08 18:20:00,
2013-04-08 14:25:00,63.3,39.2,30.01,WNW,296,1.0,6.0,41,0.00,,,0.00,Wunderground v.1.15,2013-04-08 18:25:00,
2013-04-08 14:30:00,63.1,38.4,30.00,NNW,340,4.0,5.0,40,0.00,,,0.00,Wunderground v.1.15,2013-04-08 18:30:00,
2013-04-08 14:35:00,63.0,38.9,30.00,NNW,335,3.0,8.0,41,0.00,,,0.00,Wunderground v.1.15,2013-04-08 18:35:00,
2013-04-08 14:40:00,63.3,38.6,30.00,North,355,4.0,6.0,40,0.00,,,0.00,Wunderground v.1.15,2013-04-08 18:40:00,
2013-04-08 14:45:00,63.3,37.9,30.00,NW,322,5.0,9.0,39,0.00,,,0.00,Wunderground v.1.15,2013-04-08 18:45:00,
2013-04-08 14:50:00,63.2,38.5,30.00,NW,304,10.0,10.0,40,0.00,,,0.00,Wunderground v.1.15,2013-04-08 18:50:00,
2013-04-08 14:55:00,63.3,37.9,30.00,NW,322,1.0,10.0,39,0.00,,,0.00,Wunderground v.1.15,2013-04-08 18:55:00,
2013-04-08 15:00:00,63.3,38.6,30.00,WSW,257,6.0,6.0,40,0.00,,,0.00,Wunderground v.1.15,2013-04-08 19:00:00,
2013-04-08 15:05:00,63.8,37.7,29.99,NE,56,5.0,6.0,38,0.00,,,0.00,Wunderground v.1.15,2013-04-08 19:05:00,
2013-04-08 15:10:00,63.9,37.8,29.99,NW,315,5.0,6.0,38,0.00,,,0.00,Wunderground v.1.15,2013-04-08 19:10:00,
2013-04-08 15:15:00,63.5,37.4,30.00,WNW,292,0.0,9.0,38,0.00,,,0.00,Wunderground v.1.15,2013-04-08 19:15:00,
2013-04-08 15:20:00,63.2,37.8,30.00,NW,309,1.0,4.0,39,0.00,,,0.00,Wunderground v.1.15,2013-04-08 19:20:00,
2013-04-08 15:25:00,63.0,37.0,29.99,SW,223,3.0,4.0,38,0.00,,,0.00,Wunderground v.1.15,2013-04-08 19:25:00,
2013-04-08 15:30:00,63.3,37.9,29.99,NW,325,5.0,5.0,39,0.00,,,0.00,Wunderground v.1.15,2013-04-08 19:30:00,
2013-04-08 15:35:00,63.5,38.1,29.99,ENE,57,4.0,9.0,39,0.00,,,0.00,Wunderground v.1.15,2013-04-08 19:35:00,
2013-04-08 15:40:00,63.5,38.1,29.99,NW,316,6.0,7.0,39,0.00,,,0.00,Wunderground v.1.15,2013-04-08 19:40:00,
2013-04-08 15:45:00,63.4,37.3,29.99,NNW,345,2.0,9.0,38,0.00,,,0.00,Wunderground v.1.15,2013-04-08 19:45:00,
2013-04-08 15:50:00,63.3,36.6,29.99,SSW,200,2.0,3.0,37,0.00,,,0.00,Wunderground v.1.15,2013-04-08 19:50:00,
2013-04-08 15:55:00,63.5,36.7,29.99,SE,132,4.0,5.0,37,0.00,,,0.00,Wunderground v.1.15,2013-04-08 19:55:00,
2013-04-08 16:00:00,64.2,37.4,29.99,SW,225,0.0,3.0,37,0.00,,,0.00,Wunderground v.1.15,2013-04-08 20:00:00,
2013-04-08 16:06:00,64.3,37.5,29.99,South,173,0.0,3.0,37,0.00,,,0.00,Wunderground v.1.15,2013-04-08 20:06:00,
2013-04-08 16:11:00,64.5,37.6,29.99,NNW,344,4.0,5.0,37,0.00,,,0.00,Wunderground v.1.15,2013-04-08 20:11:00,
2013-04-08 16:16:00,64.7,37.1,29.99,NNE,24,1.0,7.0,36,0.00,,,0.00,Wunderground v.1.15,2013-04-08 20:16:00,
2013-04-08 16:21:00,64.5,36.9,29.99,North,355,4.0,6.0,36,0.00,,,0.00,Wunderground v.1.15,2013-04-08 20:21:00,
2013-04-08 16:26:00,64.4,39.5,29.99,ESE,118,11.0,11.0,40,0.00,,,0.00,Wunderground v.1.15,2013-04-08 20:26:00,
2013-04-08 16:31:00,64.7,39.8,29.99,ESE,114,8.0,11.0,40,0.00,,,0.00,Wunderground v.1.15,2013-04-08 20:31:00,
2013-04-08 16:36:00,64.9,40.0,29.99,ESE,114,14.0,14.0,40,0.00,,,0.00,Wunderground v.1.15,2013-04-08 20:36:00,
2013-04-08 16:42:00,65.0,40.7,29.99,ESE,110,8.0,12.0,41,0.00,,,0.00,Wunderground v.1.15,2013-04-08 20:42:00,
2013-04-08 16:47:00,64.8,40.5,30.00,ESE,106,8.0,12.0,41,0.00,,,0.00,Wunderground v.1.15,2013-04-08 20:47:00,
2013-04-08 16:52:00,64.5,40.3,30.00,ESE,120,10.0,10.0,41,0.00,,,0.00,Wunderground v.1.15,2013-04-08 20:52:00,
2013-04-08 16:57:00,64.1,39.9,30.00,East,96,7.0,11.0,41,0.00,,,0.00,Wunderground v.1.15,2013-04-08 20:57:00,
2013-04-08 17:02:00,63.6,40.1,30.00,East,86,8.0,10.0,42,0.00,,,0.00,Wunderground v.1.15,2013-04-08 21:02:00,
2013-04-08 17:07:00,63.3,39.8,29.99,SE,129,8.0,11.0,42,0.00,,,0.00,Wunderground v.1.15,2013-04-08 21:07:00,
2013-04-08 17:12:00,63.1,39.6,30.00,SE,126,8.0,12.0,42,0.00,,,0.00,Wunderground v.1.15,2013-04-08 21:12:00,
2013-04-08 17:17:00,62.8,40.0,30.00,ESE,109,10.0,13.0,43,0.00,,,0.00,Wunderground v.1.15,2013-04-08 21:17:00,
2013-04-08 17:22:00,62.4,39.6,30.00,East,101,8.0,15.0,43,0.00,,,0.00,Wunderground v.1.15,2013-04-08 21:22:00,
2013-04-08 17:27:00,61.8,39.6,30.01,SE,125,3.0,15.0,44,0.00,,,0.00,Wunderground v.1.15,2013-04-08 21:27:00,
2013-04-08 17:32:00,61.3,39.2,30.01,ESE,119,11.0,11.0,44,0.00,,,0.00,Wunderground v.1.15,2013-04-08 21:32:00,
2013-04-08 17:37:00,60.8,39.3,30.00,ESE,103,9.0,13.0,45,0.00,,,0.00,Wunderground v.1.15,2013-04-08 21:37:00,
2013-04-08 17:42:00,60.3,39.4,30.00,East,100,11.0,11.0,46,0.00,,,0.00,Wunderground v.1.15,2013-04-08 21:42:00,
2013-04-08 17:47:00,59.8,38.4,30.00,ESE,103,9.0,16.0,45,0.00,,,0.00,Wunderground v.1.15,2013-04-08 21:47:00,
2013-04-08 17:52:00,59.4,38.6,30.01,ESE,119,5.0,12.0,46,0.00,,,0.00,Wunderground v.1.15,2013-04-08 21:52:00,
2013-04-08 17:57:00,59.0,37.7,30.01,SE,135,13.0,14.0,45,0.00,,,0.00,Wunderground v.1.15,2013-04-08 21:57:00,
2013-04-08 18:02:00,59.0,37.7,30.01,ESE,118,10.0,13.0,45,0.00,,,0.00,Wunderground v.1.15,2013-04-08 22:02:00,
2013-04-08 18:07:00,58.7,38.0,30.01,ESE,115,8.0,16.0,46,0.00,,,0.00,Wunderground v.1.15,2013-04-08 22:07:00,
2013-04-08 18:13:00,58.3,37.0,30.01,ESE,103,18.0,18.0,45,0.00,,,0.00,Wunderground v.1.15,2013-04-08 22:13:00,
2013-04-08 18:18:00,58.0,37.3,30.02,ESE,114,13.0,18.0,46,0.00,,,0.00,Wunderground v.1.15,2013-04-08 22:18:00,
2013-04-08 18:23:00,57.7,37.0,30.02,ESE,123,11.0,12.0,46,0.00,,,0.00,Wunderground v.1.15,2013-04-08 22:23:00,
2013-04-08 18:28:00,57.5,37.4,30.02,ESE,118,10.0,16.0,47,0.00,,,0.00,Wunderground v.1.15,2013-04-08 22:28:00,
2013-04-08 18:33:00,57.1,37.0,30.02,ESE,106,7.0,12.0,47,0.00,,,0.00,Wunderground v.1.15,2013-04-08 22:33:00,
2013-04-08 18:38:00,56.8,37.3,30.02,ESE,103,10.0,13.0,48,0.00,,,0.00,Wunderground v.1.15,2013-04-08 22:38:00,
2013-04-08 18:43:00,56.4,36.9,30.02,ESE,115,8.0,13.0,48,0.00,,,0.00,Wunderground v.1.15,2013-04-08 22:43:00,
2013-04-08 18:48:00,56.2,37.3,30.03,ESE,110,4.0,13.0,49,0.00,,,0.00,Wunderground v.1.15,2013-04-08 22:48:00,
2013-04-08 18:53:00,56.0,37.6,30.03,ESE,112,9.0,10.0,50,0.00,,,0.00,Wunderground v.1.15,2013-04-08 22:53:00,
2013-04-08 18:58:00,55.8,37.4,30.03,East,98,7.0,10.0,50,0.00,,,0.00,Wunderground v.1.15,2013-04-08 22:58:00,
2013-04-08 19:03:00,55.5,37.1,30.03,East,101,10.0,11.0,50,0.00,,,0.00,Wunderground v.1.15,2013-04-08 23:03:00,
2013-04-08 19:08:00,55.3,37.5,30.03,ESE,105,8.0,11.0,51,0.00,,,0.00,Wunderground v.1.15,2013-04-08 23:08:00,
2013-04-08 19:13:00,55.1,37.3,30.03,ESE,115,4.0,10.0,51,0.00,,,0.00,Wunderground v.1.15,2013-04-08 23:13:00,
2013-04-08 19:18:00,54.9,37.6,30.03,East,101,7.0,10.0,52,0.00,,,0.00,Wunderground v.1.15,2013-04-08 23:18:00,
2013-04-08 19:23:00,54.8,38.0,30.03,ESE,114,8.0,9.0,53,0.00,,,0.00,Wunderground v.1.15,2013-04-08 23:23:00,
2013-04-08 19:28:00,54.6,37.8,30.04,ESE,113,5.0,9.0,53,0.00,,,0.00,Wunderground v.1.15,2013-04-08 23:28:00,
2013-04-08 19:33:00,54.5,37.7,30.04,East,96,3.0,9.0,53,0.00,,,0.00,Wunderground v.1.15,2013-04-08 23:33:00,
2013-04-08 19:38:00,54.3,37.5,30.04,ESE,111,5.0,10.0,53,0.00,,,0.00,Wunderground v.1.15,2013-04-08 23:38:00,
2013-04-08 19:43:00,54.1,37.8,30.04,SE,126,6.0,8.0,54,0.00,,,0.00,Wunderground v.1.15,2013-04-08 23:43:00,
2013-04-08 19:48:00,54.0,37.7,30.05,ESE,107,4.0,9.0,54,0.00,,,0.00,Wunderground v.1.15,2013-04-08 23:48:00,
2013-04-08 19:53:00,53.9,37.6,30.05,ESE,117,5.0,8.0,54,0.00,,,0.00,Wunderground v.1.15,2013-04-08 23:53:00,
2013-04-08 19:58:00,53.9,38.1,30.04,ESE,106,7.0,8.0,55,0.00,,,0.00,Wunderground v.1.15,2013-04-08 23:58:00,
2013-04-08 20:03:00,53.8,38.0,30.04,ESE,102,4.0,8.0,55,0.00,,,0.00,Wunderground v.1.15,2013-04-09 00:03:00,
2013-04-08 20:08:00,53.7,37.9,30.04,East,94,6.0,8.0,55,0.00,,,0.00,Wunderground v.1.15,2013-04-09 00:08:00,
2013-04-08 20:13:00,53.6,37.8,30.04,East,84,2.0,8.0,55,0.00,,,0.00,Wunderground v.1.15,2013-04-09 00:13:00,
2013-04-08 20:18:00,53.5,38.2,30.04,ESE,106,4.0,8.0,56,0.00,,,0.00,Wunderground v.1.15,2013-04-09 00:18:00,
2013-04-08 20:23:00,53.3,38.0,30.04,ESE,106,7.0,8.0,56,0.00,,,0.00,Wunderground v.1.15,2013-04-09 00:23:00,
2013-04-08 20:28:00,53.2,37.9,30.04,ESE,113,8.0,8.0,56,0.00,,,0.00,Wunderground v.1.15,2013-04-09 00:28:00,
2013-04-08 20:33:00,53.1,37.8,30.05,East,101,2.0,6.0,56,0.00,,,0.00,Wunderground v.1.15,2013-04-09 00:33:00,
2013-04-08 20:38:00,53.1,37.8,30.05,SE,130,4.0,7.0,56,0.00,,,0.00,Wunderground v.1.15,2013-04-09 00:38:00,
2013-04-08 20:43:00,53.0,37.7,30.05,ESE,109,4.0,5.0,56,0.00,,,0.00,Wunderground v.1.15,2013-04-09 00:43:00,
2013-04-08 20:48:00,52.9,37.6,30.05,ESE,111,5.0,6.0,56,0.00,,,0.00,Wunderground v.1.15,2013-04-09 00:48:00,
2013-04-08 20:53:00,52.8,38.0,30.06,ESE,102,4.0,6.0,57,0.00,,,0.00,Wunderground v.1.15,2013-04-09 00:53:00,
2013-04-08 20:58:00,52.7,37.9,30.06,ESE,118,2.0,6.0,57,0.00,,,0.00,Wunderground v.1.15,2013-04-09 00:58:00,
2013-04-08 21:03:00,52.6,37.8,30.06,ESE,117,2.0,5.0,57,0.00,,,0.00,Wunderground v.1.15,2013-04-09 01:03:00,
2013-04-08 21:08:00,52.5,37.7,30.06,ESE,111,4.0,5.0,57,0.00,,,0.00,Wunderground v.1.15,2013-04-09 01:08:00,
2013-04-08 21:13:00,52.4,38.0,30.06,ESE,109,4.0,8.0,58,0.00,,,0.00,Wunderground v.1.15,2013-04-09 01:13:00,
2013-04-08 21:19:00,52.3,38.0,30.06,ESE,117,5.0,8.0,58,0.00,,,0.00,Wunderground v.1.15,2013-04-09 01:19:00,
2013-04-08 21:24:00,52.1,37.8,30.06,ESE,119,2.0,6.0,58,0.00,,,0.00,Wunderground v.1.15,2013-04-09 01:24:00,
2013-04-08 21:29:00,52.1,37.8,30.07,ESE,115,5.0,7.0,58,0.00,,,0.00,Wunderground v.1.15,2013-04-09 01:29:00,
2013-04-08 21:34:00,51.9,38.0,30.07,ESE,109,7.0,7.0,59,0.00,,,0.00,Wunderground v.1.15,2013-04-09 01:34:00,
2013-04-08 21:40:00,51.8,37.9,30.07,SE,132,3.0,4.0,59,0.00,,,0.00,Wunderground v.1.15,2013-04-09 01:40:00,
2013-04-08 21:45:00,51.7,37.8,30.06,ESE,111,3.0,7.0,59,0.00,,,0.00,Wunderground v.1.15,2013-04-09 01:45:00,
2013-04-08 21:50:00,51.6,37.7,30.06,ESE,103,7.0,7.0,59,0.00,,,0.00,Wunderground v.1.15,2013-04-09 01:50:00,
2013-04-08 21:55:00,51.5,38.1,30.06,East,101,6.0,7.0,60,0.00,,,0.00,Wunderground v.1.15,2013-04-09 01:55:00,
2013-04-08 22:00:00,51.5,38.1,30.06,ESE,103,5.0,7.0,60,0.00,,,0.00,Wunderground v.1.15,2013-04-09 02:00:00,
2013-04-08 22:05:00,51.4,38.0,30.06,ESE,103,4.0,9.0,60,0.00,,,0.00,Wunderground v.1.15,2013-04-09 02:05:00,
2013-04-08 22:10:00,51.4,38.0,30.06,ESE,119,4.0,5.0,60,0.00,,,0.00,Wunderground v.1.15,2013-04-09 02:10:00,
2013-04-08 22:15:00,51.3,37.9,30.06,ESE,122,4.0,7.0,60,0.00,,,0.00,Wunderground v.1.15,2013-04-09 02:15:00,
2013-04-08 22:20:00,51.3,37.9,30.06,ESE,110,3.0,5.0,60,0.00,,,0.00,Wunderground v.1.15,2013-04-09 02:20:00,
2013-04-08 22:25:00,51.3,37.9,30.06,ESE,121,4.0,7.0,60,0.00,,,0.00,Wunderground v.1.15,2013-04-09 02:25:00,
2013-04-08 22:30:00,51.3,38.3,30.06,SE,134,3.0,5.0,61,0.00,,,0.00,Wunderground v.1.15,2013-04-09 02:30:00,
2013-04-08 22:35:00,51.4,38.4,30.06,SE,134,6.0,10.0,61,0.00,,,0.00,Wunderground v.1.15,2013-04-09 02:35:00,
2013-04-08 22:40:00,51.4,38.4,30.06,SE,142,6.0,8.0,61,0.00,,,0.00,Wunderground v.1.15,2013-04-09 02:40:00,
2013-04-08 22:45:00,51.5,38.5,30.06,SSE,148,4.0,9.0,61,0.00,,,0.00,Wunderground v.1.15,2013-04-09 02:45:00,
2013-04-08 22:50:00,51.5,38.9,30.06,SE,134,6.0,9.0,62,0.00,,,0.00,Wunderground v.1.15,2013-04-09 02:50:00,
2013-04-08 22:55:00,51.5,38.9,30.06,SE,129,7.0,11.0,62,0.00,,,0.00,Wunderground v.1.15,2013-04-09 02:55:00,
2013-04-08 23:00:00,51.4,38.8,30.06,ESE,117,8.0,8.0,62,0.00,,,0.00,Wunderground v.1.15,2013-04-09 03:00:00,
2013-04-08 23:05:00,51.4,38.8,30.06,ESE,114,4.0,10.0,62,0.00,,,0.00,Wunderground v.1.15,2013-04-09 03:05:00,
2013-04-08 23:10:00,51.3,38.7,30.05,ESE,115,4.0,7.0,62,0.00,,,0.00,Wunderground v.1.15,2013-04-09 03:10:00,
2013-04-08 23:16:00,51.3,38.7,30.05,SE,132,7.0,10.0,62,0.00,,,0.00,Wunderground v.1.15,2013-04-09 03:16:00,
2013-04-08 23:21:00,51.2,38.6,30.05,ESE,115,5.0,8.0,62,0.00,,,0.00,Wunderground v.1.15,2013-04-09 03:21:00,
2013-04-08 23:26:00,51.2,39.0,30.05,SE,136,4.0,8.0,63,0.00,,,0.00,Wunderground v.1.15,2013-04-09 03:26:00,
2013-04-08 23:31:00,51.2,39.0,30.06,SSE,148,5.0,6.0,63,0.00,,,0.00,Wunderground v.1.15,2013-04-09 03:31:00,
2013-04-08 23:36:00,51.1,38.9,30.06,SE,138,5.0,7.0,63,0.00,,,0.00,Wunderground v.1.15,2013-04-09 03:36:00,
2013-04-08 23:41:00,51.1,38.9,30.05,SE,124,4.0,6.0,63,0.00,,,0.00,Wunderground v.1.15,2013-04-09 03:41:00,
2013-04-08 23:46:00,51.1,38.9,30.05,East,98,6.0,9.0,63,0.00,,,0.00,Wunderground v.1.15,2013-04-09 03:46:00,
2013-04-08 23:51:00,51.1,38.9,30.05,SE,138,7.0,7.0,63,0.00,,,0.00,Wunderground v.1.15,2013-04-09 03:51:00,
2013-04-08 23:56:00,51.1,38.9,30.05,ESE,115,5.0,8.0,63,0.00,,,0.00,Wunderground v.1.15,2013-04-09 03:56:00,